Location: ??????
(55.7522°N, 37.6156°E)
Time: 09:02:28
(UTC+00:00)

USA 229 DEB - Pass Details

Date: 21 December 2025
Orbit: 844 x 1364 km, 63.4° (Epoch: 10 January)

Event Time Altitude Azimuth Distance (km) Brightness Sun altitude
Exits shadow 02:37:51 50° 251° (WSW) 1,539 4.1 -26.1°
Maximum altitude 02:38:35 51° 233° (SW) 1,524 4.1 -26.0°
Drops below altitude 10° 02:46:22 10° 161° (SSE) 3,347 6.6 -24.9°
Sets 02:49:24 0° 157° (SSE) 4,353 7.3 -24.5°
